Weather History for Idaho Falls, ID

Change the Weather History Date:

Saturday, December 8, 2012

  Actual Average Record
Temperature  
Mean Temperature 27 °F 22 °F  
Max Temperature 34 °F 31 °F 48 °F (2006)
Min Temperature 19 °F 13 °F -20 °F (1972)
Degree Days  
Heating Degree Days 38 43  
Month to date heating degree days 221 334  
Since 1 July heating degree days 1795 2237  
Cooling Degree Days 0 0  
Month to date cooling degree days 0 0  
Year to date cooling degree days 444 264  
Moisture  
Dew Point 12 °F    
Average Humidity 51    
Maximum Humidity 75    
Minimum Humidity 26    
Precipitation  
Precipitation T in 0.03 in 0.10 in (1971)
Month to date precipitation 0.44 0.25  
Year to date precipitation 6.81 9.77  
Sea Level Pressure  
Sea Level Pressure 29.99 in    
Wind  
Wind Speed 11 mph (NW)    
Max Wind Speed 29 mph    
Max Gust Speed 36 mph    
Visibility 10 miles    
Events Snow    
T = Trace of Precipitation, MM = Missing Value Source: NWS Daily Summary

Daily Weather History Graph

Daily Weather History Graph

Search for Another Location

Airport:

Trip Planner

Search our weather history database for the weather conditions in past years. The results will help you decide how hot, cold, wet, or windy it might be!

Date:

Astronomy

Dec. 08, 2012 Rise Set
Actual Time 7:49 AM MST 4:51 PM MST
Civil Twilight 7:16 AM MST 5:24 PM MST
Nautical Twilight 6:40 AM MST 6:00 PM MST
Astronomical Twilight 6:05 AM MST 6:34 PM MST
Moon 2:10 AM MST (12/8) 1:30 PM MST (12/8)
Length of Visible Light 10h 07m
Length of Day
9h 02m
Waning Crescent, 27% of the Moon is Illuminated
Dec 8
Waning Crescent
Dec 13
New
Dec 19
First Quarter
Dec 28
Full
Jan 4
Last Quarter

Hourly Weather History & Observations

Time (MST) Temp. Windchill Dew Point Humidity Pressure Visibility Wind Dir Wind Speed Gust Speed Precip Events Conditions
12:53 AM 32.0 °F 19.8 °F 21.9 °F 66% 29.82 in 10.0 mi SW 20.7 mph 32.2 mph N/A   Clear
1:53 AM 32.0 °F 19.2 °F 21.0 °F 64% 29.80 in 10.0 mi SW 23.0 mph 28.8 mph N/A   Clear
2:53 AM 30.9 °F 18.1 °F 21.9 °F 69% 29.80 in 10.0 mi SW 21.9 mph 33.4 mph N/A   Clear
4:53 AM 28.9 °F 18.2 °F 21.9 °F 75% 29.82 in 10.0 mi WSW 13.8 mph 19.6 mph N/A   Clear
5:53 AM 30.0 °F 21.1 °F 23.0 °F 75% 29.86 in 10.0 mi WNW 10.4 mph - N/A   Mostly Cloudy
6:08 AM 28.4 °F 17.5 °F 21.2 °F 74% 29.81 in 10.0 mi NNE 13.8 mph - N/A   Overcast
6:22 AM 26.6 °F 16.2 °F 19.4 °F 74% 29.82 in 9.0 mi NNE 11.5 mph - N/A   Overcast
6:53 AM 27.0 °F 15.2 °F 18.0 °F 69% 29.90 in 9.0 mi North 15.0 mph - 0.00 in Snow Light Snow
7:53 AM 25.0 °F - 18.0 °F 75% 29.94 in 10.0 mi Calm Calm - 0.00 in   Mostly Cloudy
8:53 AM 27.0 °F 21.6 °F 15.1 °F 61% 29.96 in 10.0 mi WSW 4.6 mph - N/A   Mostly Cloudy
9:53 AM 28.0 °F 22.8 °F 9.0 °F 45% 30.00 in 10.0 mi North 4.6 mph - N/A   Clear
10:53 AM 30.0 °F 19.5 °F 10.0 °F 43% 30.01 in 10.0 mi NW 13.8 mph - N/A   Clear
11:53 AM 30.9 °F 20.7 °F 8.1 °F 38% 30.01 in 10.0 mi WNW 13.8 mph - N/A   Clear
12:53 PM 32.0 °F 21.6 °F 7.0 °F 35% 30.01 in 10.0 mi West 15.0 mph - N/A   Partly Cloudy
1:53 PM 32.0 °F 22.1 °F 6.1 °F 34% 30.01 in 10.0 mi NW 13.8 mph 20.7 mph N/A   Clear
2:53 PM 32.0 °F 21.6 °F 1.9 °F 28% 30.02 in 10.0 mi NW 15.0 mph - N/A   Partly Cloudy
3:53 PM 30.9 °F 21.2 °F 6.1 °F 35% 30.05 in 10.0 mi NNW 12.7 mph - N/A   Mostly Cloudy
4:53 PM 28.0 °F 17.5 °F 5.0 °F 38% 30.08 in 10.0 mi NNW 12.7 mph - N/A   Mostly Cloudy
5:53 PM 25.0 °F 13.1 °F 6.1 °F 45% 30.10 in 10.0 mi North 13.8 mph - N/A   Partly Cloudy
6:53 PM 23.0 °F 13.1 °F 6.1 °F 48% 30.14 in 10.0 mi North 9.2 mph - N/A   Clear
7:53 PM 19.0 °F 13.9 °F 7.0 °F 59% 30.16 in 10.0 mi NNW 3.5 mph - N/A   Clear
8:53 PM 23.0 °F 17.0 °F 3.0 °F 42% 30.16 in 10.0 mi SE 4.6 mph - N/A   Mostly Cloudy
9:53 PM 23.0 °F - 5.0 °F 46% 30.17 in 10.0 mi Calm Calm - N/A   Overcast
10:53 PM 21.0 °F - 10.9 °F 65% 30.18 in 10.0 mi Calm Calm - N/A   Overcast
11:53 PM 21.9 °F 15.7 °F 10.9 °F 63% 30.19 in 10.0 mi SSW 4.6 mph - N/A   Overcast